TimeEDT,TemperatureF,Dew PointF,Humidity,Sea Level PressureIn,VisibilityMPH,Wind Direction,Wind SpeedMPH,Gust SpeedMPH,PrecipitationIn,Events,Conditions,WindDirDegrees,DateUTC
12:35 AM,62.6,60.8,94,30.13,1.8,Calm,Calm,-,N/A,,Clear,0,2013-08-21 04:35:00
12:45 AM,62.6,60.8,94,30.13,3.0,Calm,Calm,-,N/A,,Clear,0,2013-08-21 04:45:00
12:53 AM,63.0,61.0,93,30.13,6.0,Calm,Calm,-,N/A,,Clear,0,2013-08-21 04:53:00
1:16 AM,62.6,60.8,94,30.12,1.8,Calm,Calm,-,N/A,,Clear,0,2013-08-21 05:16:00
1:34 AM,60.8,60.8,100,30.13,0.2,Calm,Calm,-,N/A,Fog,Fog,0,2013-08-21 05:34:00
1:43 AM,62.6,60.8,94,30.13,1.0,Calm,Calm,-,N/A,,Mist,0,2013-08-21 05:43:00
1:45 AM,60.8,60.8,100,30.13,2.0,Calm,Calm,-,N/A,,Partly Cloudy,0,2013-08-21 05:45:00
1:53 AM,61.0,60.1,97,30.12,3.0,Calm,Calm,-,N/A,,Partly Cloudy,0,2013-08-21 05:53:00
2:01 AM,60.8,60.8,100,30.13,2.0,Calm,Calm,-,N/A,,Clear,0,2013-08-21 06:01:00
2:13 AM,60.8,60.8,100,30.13,1.0,Calm,Calm,-,N/A,,Clear,0,2013-08-21 06:13:00
2:28 AM,60.8,60.8,100,30.13,3.0,Calm,Calm,-,N/A,,Clear,0,2013-08-21 06:28:00
2:53 AM,61.0,59.0,93,30.13,6.0,Calm,Calm,-,N/A,,Clear,0,2013-08-21 06:53:00
3:14 AM,60.8,59.0,94,30.13,2.5,Calm,Calm,-,N/A,,Clear,0,2013-08-21 07:14:00
3:23 AM,60.8,60.8,100,30.13,3.0,Calm,Calm,-,N/A,,Clear,0,2013-08-21 07:23:00
3:31 AM,60.8,59.0,94,30.13,2.0,Calm,Calm,-,N/A,,Clear,0,2013-08-21 07:31:00
3:43 AM,59.0,57.2,94,30.13,4.0,Calm,Calm,-,N/A,,Clear,0,2013-08-21 07:43:00
3:53 AM,60.1,59.0,96,30.13,2.5,South,3.5,-,N/A,,Clear,170,2013-08-21 07:53:00
4:04 AM,60.8,57.2,88,30.13,4.0,Calm,Calm,-,N/A,,Clear,0,2013-08-21 08:04:00
4:53 AM,59.0,57.9,96,30.14,2.5,Calm,Calm,-,N/A,,Clear,0,2013-08-21 08:53:00
4:58 AM,57.2,57.2,100,30.14,0.8,Calm,Calm,-,N/A,,Clear,0,2013-08-21 08:58:00
5:11 AM,57.2,57.2,100,30.14,1.0,Calm,Calm,-,N/A,,Clear,0,2013-08-21 09:11:00
5:31 AM,59.0,57.2,94,30.15,3.0,Calm,Calm,-,N/A,,Clear,0,2013-08-21 09:31:00
5:39 AM,57.2,57.2,100,30.15,1.5,Calm,Calm,-,N/A,,Clear,0,2013-08-21 09:39:00
5:41 AM,57.2,57.2,100,30.15,1.0,Calm,Calm,-,N/A,,Mist,0,2013-08-21 09:41:00
5:48 AM,57.2,57.2,100,30.15,0.5,Calm,Calm,-,N/A,Fog,Fog,0,2013-08-21 09:48:00
5:53 AM,57.9,57.0,97,30.15,0.2,Calm,Calm,-,N/A,Fog,Fog,0,2013-08-21 09:53:00
6:04 AM,57.2,57.2,100,30.16,1.0,Calm,Calm,-,N/A,,Mist,0,2013-08-21 10:04:00
6:06 AM,57.2,57.2,100,30.16,2.5,Calm,Calm,-,N/A,,Scattered Clouds,0,2013-08-21 10:06:00
6:13 AM,57.2,57.2,100,30.16,4.0,Calm,Calm,-,N/A,,Partly Cloudy,0,2013-08-21 10:13:00
6:29 AM,57.2,57.2,100,30.16,2.0,Calm,Calm,-,N/A,,Clear,0,2013-08-21 10:29:00
6:42 AM,59.0,57.2,94,30.16,4.0,Calm,Calm,-,N/A,,Clear,0,2013-08-21 10:42:00
6:53 AM,57.9,57.0,97,30.17,2.5,Calm,Calm,-,N/A,,Clear,0,2013-08-21 10:53:00
7:03 AM,59.0,57.2,94,30.17,10.0,Calm,Calm,-,N/A,,Clear,0,2013-08-21 11:03:00
7:53 AM,64.0,61.0,90,30.17,10.0,Calm,Calm,-,N/A,,Clear,0,2013-08-21 11:53:00
8:53 AM,69.1,62.1,78,30.17,9.0,Calm,Calm,-,N/A,,Clear,0,2013-08-21 12:53:00
9:53 AM,75.9,63.0,64,30.16,10.0,Calm,Calm,-,N/A,,Clear,0,2013-08-21 13:53:00
10:53 AM,82.0,64.0,54,30.16,10.0,Calm,Calm,-,N/A,,Clear,0,2013-08-21 14:53:00
11:53 AM,84.0,62.1,47,30.15,10.0,West,9.2,-,N/A,,Clear,270,2013-08-21 15:53:00
12:53 PM,84.9,61.0,44,30.14,10.0,Calm,Calm,-,N/A,,Partly Cloudy,0,2013-08-21 16:53:00
1:53 PM,86.0,60.1,41,30.12,10.0,West,8.1,-,N/A,,Scattered Clouds,280,2013-08-21 17:53:00
2:53 PM,88.0,60.1,39,30.09,10.0,NW,6.9,-,N/A,,Partly Cloudy,310,2013-08-21 18:53:00
3:53 PM,87.1,57.9,37,30.08,10.0,WSW,8.1,-,N/A,,Partly Cloudy,240,2013-08-21 19:53:00
4:53 PM,87.1,60.1,40,30.07,10.0,West,6.9,-,N/A,,Clear,280,2013-08-21 20:53:00
5:53 PM,86.0,61.0,43,30.06,10.0,WSW,9.2,-,N/A,,Clear,240,2013-08-21 21:53:00
6:53 PM,82.9,64.0,53,30.05,10.0,SW,4.6,-,N/A,,Clear,230,2013-08-21 22:53:00
7:53 PM,73.9,66.9,79,30.06,10.0,Calm,Calm,-,N/A,,Clear,0,2013-08-21 23:53:00
8:53 PM,71.1,66.0,84,30.06,10.0,South,3.5,-,N/A,,Clear,180,2013-08-22 00:53:00
9:53 PM,68.0,66.0,93,30.06,7.0,Calm,Calm,-,N/A,,Clear,0,2013-08-22 01:53:00
10:53 PM,66.9,64.9,93,30.05,4.0,Calm,Calm,-,N/A,,Clear,0,2013-08-22 02:53:00
11:53 PM,66.9,64.0,90,30.03,9.0,Calm,Calm,-,N/A,,Partly Cloudy,0,2013-08-22 03:53:00